Resia Pass, Italy

2:04 PM CET on December 12, 2017 (GMT +0100)
Resia Pass

Weather History for LIVE - October, 2012

Change the Weather History Date:

Saturday, October 6, 2012

  Actual Average Record
Temperature  
Mean Temperature 52 °F -  
Max Temperature 59 °F 53 °F 64 °F (2007)
Min Temperature 44 °F 39 °F 32 °F (2003)
Degree Days  
Heating Degree Days 14    
Growing Degree Days 2 (Base 50)    
Moisture  
Dew Point 43 °F    
Average Humidity 74    
Maximum Humidity 87    
Minimum Humidity 48    
Precipitation  
Precipitation 0.00 in - - ()
Sea Level Pressure  
Sea Level Pressure 30.18 in    
Wind  
Wind Speed 2 mph ()    
Max Wind Speed 8 mph    
Max Gust Speed -    
Visibility 6.2 miles    
Events      
Averages and records for this station are not official NWS values.
T = Trace of Precipitation, MM = Missing Value Source: Averaged Metar Reports

Daily Weather History Graph

Daily Weather History Graph

Search for Another Location

Airport or City:

Trip Planner

Search our weather history database for the weather conditions in past years. The results will help you decide how hot, cold, wet, or windy it might be!

Date:

Astronomy

Oct. 06, 2012 Rise Set
Actual Time 7:23 AM CEST 6:47 PM CEST
Civil Twilight 6:53 AM CEST 7:17 PM CEST
Nautical Twilight 6:18 AM CEST 7:52 PM CEST
Astronomical Twilight 5:42 AM CEST 8:28 PM CEST
Moon 10:31 PM CEST (10/6) 1:23 PM CEST (10/6)
Length of Visible Light 12h 24m
Length of Day
11h 23m
Waning Gibbous, 68% of the Moon is Illuminated
Oct 6
Waning Gibbous
Oct 8
Last Quarter
Oct 15
New
Oct 22
First Quarter
Oct 29
Full

Hourly Weather History & Observations

Time (CEST) Temp. Windchill Dew Point Humidity Pressure Visibility Wind Dir Wind Speed Gust Speed Precip Events Conditions
12:55 AM 51.8 °F - 46.4 °F 82% 30.21 in 6.2 mi Calm Calm - N/A   Scattered Clouds
1:55 AM 50.0 °F - 44.6 °F 82% 30.21 in 6.2 mi Calm Calm - N/A   Mostly Cloudy
2:55 AM 50.0 °F - 46.4 °F 87% 30.21 in 6.2 mi North 3.5 mph - N/A   Mostly Cloudy
3:55 AM 50.0 °F - 44.6 °F 82% 30.21 in 6.2 mi North 3.5 mph - N/A   Mostly Cloudy
4:55 AM 50.0 °F - 44.6 °F 82% 30.21 in 6.2 mi Calm Calm - N/A   Mostly Cloudy
5:55 AM 50.0 °F - 44.6 °F 82% 30.21 in 6.2 mi Calm Calm - N/A   Mostly Cloudy
6:55 AM 48.2 °F - 41.0 °F 76% 30.21 in 6.2 mi Calm Calm - N/A   Mostly Cloudy
7:55 AM 44.6 °F 43.1 °F 39.2 °F 81% 30.21 in 6.2 mi NNE 3.5 mph - N/A   Scattered Clouds
8:55 AM 44.6 °F 43.1 °F 39.2 °F 81% 30.18 in - North 3.5 mph - N/A   Clear
9:55 AM 46.4 °F 45.2 °F 41.0 °F 81% 30.21 in - North 3.5 mph - N/A   Clear
10:55 AM 53.6 °F - 42.8 °F 67% 30.21 in - Variable 2.3 mph - N/A   Clear
11:55 AM 57.2 °F - 39.2 °F 51% 30.18 in - South 6.9 mph - N/A   Clear
12:55 PM 57.2 °F - 39.2 °F 51% 30.18 in - South 6.9 mph - N/A   Clear
1:55 PM 59.0 °F - 39.2 °F 48% 30.18 in - SSW 8.1 mph - N/A   Clear
4:55 PM 57.2 °F - 42.8 °F 59% 30.15 in - South 5.8 mph - N/A   Clear
5:55 PM 55.4 °F - 41.0 °F 58% 30.12 in - SW 5.8 mph - N/A   Clear
6:55 PM 55.4 °F - 44.6 °F 67% 30.12 in - Calm Calm - N/A   Clear
7:55 PM 51.8 °F - 44.6 °F 76% 30.15 in - Calm Calm - N/A   Clear
8:55 PM 50.0 °F - 44.6 °F 82% 30.15 in - NNE 3.5 mph - N/A   Clear
9:55 PM 50.0 °F - 44.6 °F 82% 30.15 in - ENE 3.5 mph - N/A   Clear
10:55 PM 48.2 °F - 44.6 °F 87% 30.15 in - Calm Calm - N/A   Clear
11:55 PM 48.2 °F - 44.6 °F 87% 30.15 in - Calm Calm - N/A   Clear